Temp
20 20 20 20 20 20 20 20 20 20 20 19 19 19 19 19 19 18 18 18 18 17 17 17 17 17 18 18 19 19 20 20 20 19 18 18 18 19 20 20 19 19 19
19 20 20 20 20 20 20 20 20 19 19 18 18 19 19 19 18 18 18 18 17 17 17 17 17 17 18 18 19 19 19 20 20 20 18 18 18 18 19 19 19 19 18
19 20 20 20 20 19 19 19 19 19 18 18 18 18 19 19 18 18 18 18 17 17 17 17 17 18 18 18 19 19 19 20 20 20 20 18 17 17 18 18 18 18 17
20 19 19 19 19 19 19 19 19 18 18 18 18 18 18 18 18 18 18 17 17 16 16 16 18 18 18 19 19 20 20 20 21 21 21 19 18 17 18 17 17 18 17
20 20 18 19 19 19 19 18 18 18 18 18 18 19 19 19 18 18 18 17 16 16 17 18 18 18 18 18 19 19 20 20 22 21 20 19 19 16 17 17 17 17 17
20 19 19 19 19 19 18 18 18 18 18 18 19 19 19 19 19 18 18 18 17 18 18 18 18 18 18 18 19 19 20 20 20 21 20 19 18 16 16 16 16 17 17
17 17 18 17 18 18 18 18 18 18 18 19 19 19 19 19 18 18 18 18 18 18 18 18 18 18 18 18 19 19 20 20 20 20 20 19 18 17 16 16 16 16 17
17 17 17 17 17 16 17 18 18 18 18 18 19 19 19 18 18 18 18 18 18 18 18 18 18 18 18 18 19 20 19 20 20 21 18 18 18 17 16 16 16 16 16
17 17 17 16 17 17 18 18 18 18 19 19 18 19 18 18 18 18 18 18 18 18 18 18 18 18 19 18 18 20 20 19 20 19 18 18 17 17 16 15 16 16 16
16 16 16 17 16 17 17 18 18 19 18 18 19 19 19 19 19 18 18 18 18 18 18 18 18 19 19 19 18 19 19 19 20 19 19 17 18 17 16 16 16 16 16
16 16 17 17 17 18 18 18 18 19 19 19 19 19 19 19 19 18 18 19 19 19 19 19 19 19 19 19 18 19 19 18 19 19 18 17 18 17 15 15 16 16 16
16 17 18 18 18 18 18 18 19 19 19 19 19 19 19 19 19 19 19 19 19 19 19 19 19 19 18 18 18 18 18 18 18 18 18 17 17 17 15 14 14 15 15
19 18 18 19 19 19 19 19 19 19 19 19 19 19 19 19 19 19 19 18 19 19 19 19 19 19 19 18 18 17 17 17 17 17 17 16 16 16 14 13 13 13 14
20 19 19 19 20 20 21 21 20 20 20 19 19 19 19 19 18 18 18 18 18 19 19 19 19 18 18 18 17 17 17 16 16 16 16 15 15 15 15 14 13 12 12
21 21 20 20 20 20 21 20 20 19 19 19 18 18 18 18 17 17 17 17 18 18 18 18 17 17 17 17 16 16 16 16 16 16 16 15 15 15 14 12 12 11 11
21 21 20 19 20 20 20 19 19 19 18 19 18 17 17 17 17 16 17 17 17 18 16 16 16 16 16 16 16 16 16 16 16 16 15 15 15 14 14 13 12 11 10
21 20 20 19 20 19 19 19 19 19 18 18 17 17 16 17 17 16 16 16 16 16 16 16 15 15 15 15 15 15 15 15 15 15 15 15 15 14 13 12 11 11 11
21 20 20 20 19 19 19 18 18 17 17 16 16 16 16 16 16 16 16 15 15 15 15 15 15 14 14 14 14 14 15 14 14 14 15 14 14 14 12 12 11 10 10
21 20 20 19 19 19 18 18 17 16 16 17 16 16 16 15 15 16 16 15 15 15 15 15 14 13 13 13 14 14 13 13 13 13 14 14 14 13 12 12 11 10 10
21 21 20 19 18 18 18 18 17 17 17 17 17 16 16 15 15 15 15 15 14 15 14 13 13 13 13 13 12 12 13 12 12 12 12 11 11 12 12 11 10 9 8
22 21 20 19 18 19 19 19 18 18 18 16 15 15 15 15 15 14 14 14 14 13 13 13 13 12 12 12 12 11 12 11 11 12 10 10 10 11 11 10 9 8 8
22 21 20 20 19 20 21 20 20 18 17 17 15 15 14 14 14 14 13 13 13 12 12 12 12 12 11 11 10 10 8 10 11 9 10 10 10 9 9 9 9 8 7
22 21 21 20 20 21 20 18 18 18 17 17 16 15 14 14 14 13 13 13 12 12 12 11 11 11 10 10 10 10 7 6 8 8 8 9 9 9 8 8 8 8 7
21 21 21 21 20 19 19 19 18 18 16 16 15 14 14 13 13 12 12 12 11 11 11 11 11 10 10 9 9 8 8 7 5 6 8 8 8 7 8 7 7 6 6
21 21 21 20 19 18 18 17 17 16 16 15 14 13 13 12 12 12 11 10 10 10 10 10 10 9 8 7 6 7 7 7 7 6 4 6 6 6 6 7 6 6 6
21 21 19 19 18 17 16 16 15 15 14 13 13 12 12 12 11 11 10 9 9 9 10 9 8 7 6 6 5 6 6 6 6 5 4 5 5 6 6 6 6 5 5
Height
790 794 801 805 810 814 817 820 822 825 828 830 832 833 835 838 838 840 840 840 840 842 843 844 844 843 844 843 843 842 839 837 839 838 838 839 839 838 838 837 837 835 833
789 795 801 807 811 816 819 821 824 828 832 833 834 836 837 838 840 842 842 843 844 843 845 847 847 847 846 845 844 842 841 839 840 840 841 842 841 840 838 838 837 835 834
795 797 803 810 813 818 820 823 827 829 833 836 837 839 840 841 843 844 844 845 846 847 848 849 850 849 848 847 846 844 843 842 841 840 842 843 842 842 839 839 838 837 837
793 801 805 811 815 818 821 824 830 831 833 837 839 841 841 844 846 847 847 848 849 850 850 851 851 851 850 848 848 844 845 844 842 842 842 845 844 842 841 841 840 839 838
801 805 808 813 818 822 820 827 830 835 834 838 840 841 843 845 848 848 850 850 850 851 851 852 853 853 852 851 850 848 846 844 841 843 842 844 845 845 843 842 842 841 840
802 805 811 817 821 823 823 827 829 834 837 839 843 844 845 848 850 849 852 852 852 852 853 853 853 856 855 853 851 850 848 847 845 845 842 845 845 846 845 844 843 842 841
801 807 815 821 822 825 829 825 830 837 839 840 844 846 846 849 852 851 853 854 854 855 856 857 855 857 857 856 854 854 851 849 846 847 844 844 846 847 847 845 845 844 842
806 808 814 821 824 823 828 825 834 839 840 843 845 847 849 852 853 854 855 855 856 857 859 858 858 859 858 857 856 855 854 852 850 848 846 845 847 848 848 846 845 845 844
811 817 819 826 827 829 826 829 836 840 842 846 847 849 852 853 855 857 857 857 857 858 860 860 859 860 858 857 858 856 854 853 851 852 848 847 847 849 849 848 847 846 845
815 816 819 825 817 829 832 833 838 841 843 847 848 851 853 854 856 858 856 857 857 858 860 861 860 860 858 859 857 857 856 854 851 851 849 849 849 849 850 848 847 846 845
818 820 822 829 833 833 834 834 839 842 845 847 850 852 852 855 856 857 858 857 858 857 859 860 860 860 859 858 857 857 856 856 854 852 849 849 848 849 850 848 846 845 844
818 823 824 830 833 832 835 837 840 843 845 848 851 852 853 856 857 858 858 856 858 857 859 860 860 858 859 859 858 857 856 857 856 854 850 849 847 848 849 848 846 845 843
817 820 823 826 829 834 837 838 841 844 846 849 851 852 856 855 855 856 857 859 858 857 860 859 860 859 858 859 858 856 856 856 856 854 851 850 848 846 847 848 846 844 843
819 822 826 830 832 834 837 839 841 845 848 848 851 853 854 856 856 857 858 856 859 859 857 859 859 858 858 859 857 856 855 856 855 854 851 849 848 847 846 844 846 844 844
819 823 826 829 832 834 838 840 843 846 847 850 852 855 855 855 857 856 857 859 859 859 857 857 858 857 858 858 857 856 855 854 854 852 851 850 847 847 845 844 844 844 843
820 824 828 832 835 836 839 842 845 847 848 850 851 852 855 855 854 856 856 857 857 856 856 857 858 858 858 858 856 855 855 853 853 851 849 849 846 845 843 841 841 842 843
818 825 828 831 834 836 840 844 843 842 848 851 850 850 853 853 854 855 856 857 856 856 857 858 858 858 858 857 855 854 853 852 851 850 849 848 844 842 841 840 840 840 841
819 824 828 830 834 838 840 843 846 846 847 851 851 852 852 853 855 856 857 857 857 858 858 859 859 857 856 856 854 853 851 849 849 849 847 845 845 843 839 838 840 838 840
818 824 829 832 834 837 839 840 846 847 849 850 851 852 855 855 856 856 857 857 858 859 859 858 857 856 856 854 853 851 848 848 849 847 844 844 844 842 840 839 839 838 839
816 824 829 832 835 838 840 842 845 848 849 851 853 855 855 855 855 856 857 858 858 858 858 857 856 856 854 852 851 850 847 847 848 846 845 842 842 840 839 838 836 837 836
815 822 828 831 835 835 838 840 844 846 848 850 853 854 854 856 856 857 858 858 857 856 856 856 855 853 852 851 849 848 846 845 845 844 842 841 840 839 839 837 835 835 835
813 819 825 829 832 832 835 838 840 842 846 849 851 853 854 855 855 856 857 857 856 856 855 854 853 851 850 850 850 847 844 844 843 842 841 840 839 838 837 836 834 833 833
810 816 821 826 829 830 832 836 839 842 846 848 851 853 854 855 856 856 856 855 855 854 853 852 851 850 848 849 850 849 846 846 843 843 843 841 839 838 836 835 833 831 831
809 814 819 823 826 830 833 836 839 841 844 847 850 852 854 854 855 855 855 853 852 851 850 850 849 848 847 847 848 848 847 846 844 841 840 839 839 837 835 833 832 831 830
808 813 816 820 825 831 832 834 837 841 845 847 850 853 853 854 855 854 853 851 851 850 848 847 846 845 845 847 847 848 848 847 846 843 839 837 837 836 834 832 829 828 828
808 812 815 820 826 830 831 833 835 840 843 847 850 852 852 854 854 852 851 850 849 847 846 845 843 844 845 846 846 847 847 846 845 843 839 836 835 833 832 830 828 827 825
Wind_Speed
29 31 26 25 23 23 23 22 21 20 19 17 16 16 16 16 16 16 18 19 19 19 19 18 17 17 17 17 16 15 15 14 10 7 5 5 6 7 8 10 13 14 15
32 31 27 26 25 24 24 22 21 19 18 16 16 15 15 15 16 16 17 18 18 19 17 17 17 17 18 17 17 16 15 13 11 8 5 6 9 10 12 12 12 12 12
27 30 27 25 25 24 23 22 20 19 17 16 16 15 15 15 16 16 17 17 17 17 16 17 18 21 22 22 22 20 15 13 12 14 12 7 12 12 13 13 12 10 10
31 28 27 25 24 24 23 21 19 18 18 16 16 15 15 15 15 15 16 16 16 16 17 17 19 20 21 22 22 21 15 16 15 14 15 13 16 17 14 13 13 10 10
27 24 24 24 23 22 23 19 19 17 17 16 15 15 14 14 14 14 14 15 16 17 17 17 17 18 19 21 23 23 17 18 24 16 12 10 14 15 13 10 9 11 10
24 23 25 22 21 21 20 19 18 17 16 16 14 13 13 13 12 14 14 15 16 17 16 16 16 17 18 21 24 24 20 18 20 18 11 11 14 12 12 11 11 10 10
24 27 22 19 18 20 17 20 18 16 15 15 13 12 13 12 12 14 15 15 15 15 14 13 14 14 15 18 21 21 23 23 24 13 9 15 14 12 12 11 10 10 10
25 24 22 13 15 18 19 21 17 16 15 13 12 12 12 12 12 13 13 13 13 12 10 10 11 10 12 14 19 21 18 19 22 19 13 17 14 13 11 10 10 10 11
23 20 24 19 16 14 18 20 17 15 13 11 12 13 12 12 12 11 9 9 9 8 8 8 8 9 10 10 13 20 19 20 19 15 12 14 13 11 10 10 10 10 10
23 19 23 19 10 19 19 17 16 14 13 12 14 13 14 13 11 9 8 5 5 6 7 9 10 10 11 9 7 16 18 18 16 16 13 15 15 13 11 8 8 9 10
21 16 18 21 18 17 17 17 16 14 14 14 14 11 10 6 6 7 5 3 4 5 6 8 10 9 12 18 8 17 17 17 19 15 11 13 15 14 13 13 10 10 10
28 20 21 22 20 19 16 18 15 15 13 9 8 5 9 6 4 2 2 4 4 7 8 6 9 10 11 13 14 14 15 14 18 17 13 14 14 12 12 13 13 12 10
23 21 18 20 17 19 18 17 15 13 12 10 8 3 8 5 7 4 4 5 5 7 7 10 12 6 12 11 12 10 12 14 16 16 20 12 14 12 9 10 12 13 14
20 22 20 17 18 18 17 16 16 13 12 9 7 4 5 3 5 2 2 4 8 14 11 12 12 12 14 17 13 15 13 13 16 14 17 16 15 13 11 8 8 11 14
19 17 19 16 17 13 19 15 17 12 11 8 2 3 6 3 2 3 7 8 10 12 13 12 16 16 16 15 16 13 16 16 16 14 14 19 17 12 10 7 9 11 12
22 21 21 18 18 17 17 17 14 12 8 7 5 2 2 2 2 4 4 3 4 7 11 13 13 12 13 15 15 16 16 18 17 17 13 14 21 11 8 6 8 11 12
22 21 21 21 19 19 18 14 11 10 9 5 6 5 4 5 4 2 6 9 9 10 13 13 15 15 12 15 18 19 18 17 18 21 20 19 21 16 8 7 7 12 16
22 21 20 20 20 19 17 9 3 8 11 7 10 9 8 9 8 9 8 8 10 11 11 9 12 12 17 18 17 21 15 17 22 25 18 19 21 17 5 5 10 15 13
24 23 20 23 20 19 11 9 7 10 11 13 13 11 10 10 9 7 3 5 10 10 11 12 13 17 18 20 21 23 17 20 21 25 23 25 16 11 9 10 12 15 8
25 22 21 20 16 12 10 11 11 13 13 14 12 9 11 10 8 5 9 9 8 11 12 16 16 15 16 16 21 23 16 12 20 22 16 18 20 16 17 17 12 10 16
26 23 21 19 15 13 16 17 16 16 13 13 10 10 8 9 8 9 6 9 11 12 15 15 17 14 15 16 18 17 18 16 17 18 22 24 23 22 18 14 13 16 17
25 24 21 20 15 14 14 14 12 19 17 13 10 10 8 7 7 7 9 11 12 13 15 15 17 18 13 12 16 18 4 11 12 24 25 23 21 23 18 21 19 15 12
26 25 21 18 16 12 16 12 11 12 11 13 10 10 9 7 7 8 10 11 13 13 13 16 17 16 9 12 13 13 4 4 14 14 19 19 19 19 20 18 18 14 14
23 21 22 20 16 12 9 15 13 12 14 11 8 8 6 6 7 9 11 13 15 14 15 15 14 15 10 10 13 12 17 18 6 8 6 15 20 22 21 19 16 15 17
22 20 19 20 15 12 12 13 13 15 13 11 8 5 5 7 7 8 10 13 15 15 15 16 15 6 5 10 13 16 15 16 16 11 7 12 19 21 25 18 19 21 21
23 20 22 19 16 15 15 16 18 15 11 9 5 3 6 7 8 9 10 12 13 14 14 7 5 6 8 8 10 10 16 13 12 12 6 13 15 19 19 21 19 19 20
Wind_Direction
133 146 151 147 144 142 137 130 126 120 113 109 101 94 86 81 78 77 79 77 73 69 63 60 57 54 52 50 44 40 38 44 46 52 63 62 62 63 49 37 43 27 33
137 144 148 148 145 141 134 129 124 117 111 106 99 92 89 86 83 84 81 77 73 69 66 62 59 53 51 50 44 40 43 50 43 29 42 60 59 54 45 31 24 25 34
134 144 146 148 144 140 134 128 122 116 110 102 96 91 83 84 86 85 81 76 71 70 69 68 63 59 57 49 41 40 44 36 16 14 41 119 65 50 46 35 26 36 32
138 140 147 149 145 139 132 123 119 117 110 103 96 88 87 88 88 84 78 75 73 74 76 72 66 61 57 50 44 41 29 17 6 41 50 56 45 38 42 42 33 40 44
133 136 145 147 142 137 121 123 118 115 108 104 97 93 94 94 89 83 78 80 81 82 81 76 70 61 54 47 40 35 29 21 37 65 51 28 27 28 33 43 43 33 36
130 143 143 144 142 129 124 125 118 114 111 103 95 92 94 95 90 85 83 84 84 84 81 76 67 53 45 40 35 34 31 26 24 44 68 39 38 36 33 35 36 34 28
131 131 133 136 132 127 134 119 114 114 105 100 95 95 98 97 94 93 88 85 82 78 74 67 60 49 40 34 31 29 37 27 16 34 62 54 43 37 23 23 22 19 18
128 132 130 135 127 130 138 114 116 110 103 101 100 103 102 100 100 98 92 88 85 79 65 55 45 32 28 26 27 23 18 24 10 4 78 54 47 34 26 19 14 12 5
123 141 133 159 142 135 116 116 115 109 105 106 103 101 103 100 98 91 87 81 72 61 47 29 15 3 4 10 23 24 14 24 4 26 50 45 40 25 19 12 9 8 11
152 145 162 123 135 130 121 115 115 115 107 99 103 107 110 95 97 93 83 69 68 46 23 10 5 4 358 338 359 20 7 11 13 21 16 30 22 9 355 345 344 347 346
123 154 143 138 145 122 116 117 116 106 107 105 111 115 113 106 98 120 74 38 30 28 11 15 13 5 354 3 327 3 15 0 355 357 360 4 359 1 5 354 340 322 321
157 153 134 138 141 118 113 109 111 117 105 113 100 111 114 120 103 139 49 40 44 22 355 348 346 358 19 1 358 359 355 351 348 358 345 346 346 357 18 7 3 353 338
127 125 123 123 126 134 133 133 122 124 131 127 146 100 127 117 118 71 22 344 2 4 27 359 338 359 349 355 339 353 349 351 346 339 333 335 346 350 17 23 18 17 4
128 134 135 136 115 126 133 130 132 123 143 137 139 137 114 118 81 97 4 9 14 6 7 351 338 19 10 2 358 3 351 341 337 339 331 333 337 337 343 0 21 19 15
130 136 126 124 126 132 122 114 110 110 103 95 124 103 89 87 89 22 359 339 349 7 0 353 360 1 353 342 345 344 339 338 325 317 321 327 325 326 341 29 33 28 23
140 127 130 133 135 122 125 119 115 106 100 91 78 30 109 97 26 64 66 35 6 339 357 1 349 346 345 342 336 335 336 332 332 338 333 318 315 294 305 324 350 15 13
130 136 140 146 137 132 128 131 145 115 83 112 161 171 174 213 268 2 47 7 350 344 340 338 336 339 336 330 335 338 329 329 338 326 318 316 310 292 269 325 14 0 351
138 141 145 135 129 140 147 123 43 104 120 136 106 96 79 67 66 51 42 19 356 8 348 337 333 350 339 333 325 321 315 333 328 319 316 326 319 325 322 12 5 13 348
147 150 148 147 154 146 127 123 147 120 112 96 81 73 80 77 55 60 43 31 351 348 339 343 345 339 330 327 323 325 328 334 329 325 323 311 303 322 359 341 330 349 349
149 158 155 155 162 148 133 126 133 126 114 107 98 95 78 67 57 54 34 22 356 338 346 342 334 322 310 324 329 321 320 326 316 326 354 10 358 343 336 334 341 343 342
152 160 163 164 178 174 154 148 153 137 121 108 100 88 83 73 47 29 15 351 342 340 337 331 320 324 324 328 324 327 323 320 324 326 340 344 343 341 338 333 348 340 338
159 165 169 171 183 204 152 129 131 124 121 124 126 115 90 61 38 8 353 338 328 331 323 322 330 327 311 327 340 328 321 318 305 336 334 335 330 328 335 330 331 334 333
162 162 173 171 181 160 140 120 121 123 134 141 117 107 50 23 5 349 343 339 334 320 318 319 320 311 349 334 322 329 334 326 332 335 326 319 330 330 326 329 326 328 327
159 168 175 173 145 128 138 128 113 104 103 91 80 56 26 3 348 341 339 338 331 329 326 318 314 320 326 332 328 333 339 338 332 322 313 331 328 333 332 331 337 344 331
163 175 166 140 133 148 129 127 115 107 110 108 70 42 12 355 350 344 340 334 331 325 316 313 310 315 348 13 0 344 333 315 318 324 323 335 327 320 320 321 336 333 327
173 152 140 140 145 145 133 126 122 111 105 96 80 49 14 346 341 338 328 335 331 328 327 332 341 352 351 341 337 319 308 331 328 328 315 318 310 310 313 325 326 323 327